RH
51 51 57 61 63 66 71 79 88 95 98 99 97 94 89 82 76 72 67 53 38 27 23 25 23 19 16 15 17 20 25 37 53 68 82 87 89 89 88 87 85 83 81 80 80 80 79 79 80 85 93 96 97 96 92 86 82 78 74 66 58 49 43 41 39 36 30 31 38 51 71 82 85 84 78 71 65 60 55 63 71 77 78 68 55 44 39 35 38 45 56 71 80 78 63 58 57 58 60 55 57 58 49
57 54 57 61 64 67 71 78 86 94 98 98 96 93 90 85 80 73 64 48 34 24 22 22 20 17 14 15 17 21 26 38 53 68 81 85 86 86 85 83 82 81 80 80 81 80 79 76 78 84 94 98 97 93 86 81 75 68 57 48 40 34 30 31 33 34 30 34 46 64 82 91 93 91 83 69 60 54 48 51 58 62 58 51 45 41 37 34 37 42 46 54 61 64 63 55 46 39 38 37 36 38 42
65 58 59 62 67 72 78 79 84 90 97 97 96 94 91 86 79 68 56 40 29 21 20 19 17 15 14 15 19 24 31 44 58 71 81 84 85 84 82 80 78 78 78 81 82 80 77 74 76 83 91 96 95 88 77 68 56 43 31 28 25 23 22 23 28 32 30 37 54 73 91 97 98 96 89 69 55 46 41 42 44 46 44 41 39 38 36 36 39 43 45 47 48 49 53 47 38 31 30 28 26 25 28
71 63 62 65 71 78 89 85 84 86 94 95 94 92 90 82 72 59 46 33 24 19 17 16 14 13 14 17 21 29 39 52 64 75 82 84 84 83 81 78 76 76 79 84 85 82 76 75 77 81 85 86 81 73 62 48 34 25 21 22 22 21 20 21 26 31 32 42 59 80 97 99 99 98 94 75 58 45 40 42 44 46 45 42 41 40 39 40 44 48 49 47 43 40 36 32 29 27 25 24 23 23 23
73 67 67 69 74 82 93 89 85 84 90 90 90 88 84 74 63 51 38 27 20 16 15 13 13 13 14 18 25 35 48 61 71 79 83 84 85 84 81 77 75 76 82 87 88 86 80 79 79 80 78 76 70 60 46 34 27 25 26 26 26 26 25 26 30 34 35 45 65 86 100 99 100 99 97 84 68 55 48 49 50 50 51 48 46 43 43 41 45 52 60 54 48 42 31 27 24 23 22 22 21 21 22
72 68 72 76 78 82 89 88 86 85 86 85 84 81 76 67 59 50 37 25 18 14 13 12 12 13 15 19 27 39 55 69 78 83 85 86 86 85 82 78 76 79 84 89 90 88 84 83 81 79 74 69 61 50 38 31 29 30 30 30 31 32 33 38 41 43 42 48 64 84 100 100 100 99 97 84 74 68 64 56 52 50 49 49 47 46 44 42 41 40 41 45 44 39 33 26 23 22 21 21 20 20 20
69 68 75 80 83 84 85 86 87 88 87 83 80 76 70 66 62 54 41 27 18 13 12 11 11 12 14 18 27 40 57 72 82 87 88 88 88 87 84 81 81 83 86 88 88 87 85 84 81 76 69 62 54 45 37 35 34 35 34 33 34 36 43 66 66 54 47 49 62 77 91 98 100 96 86 75 79 85 84 68 65 65 55 54 50 47 45 45 43 41 40 40 39 37 32 29 27 25 23 21 20 19 19
67 66 74 81 84 85 85 87 91 94 93 86 80 74 69 70 68 61 47 31 20 13 11 11 11 12 14 17 25 37 53 70 82 88 89 89 88 87 87 86 86 86 87 86 85 84 83 81 76 70 64 58 51 45 40 40 40 39 38 36 36 40 50 70 73 63 46 47 58 70 76 90 97 94 78 71 80 93 95 80 77 78 76 71 70 69 63 61 55 49 43 42 40 36 32 31 32 32 29 24 21 19 19
66 67 72 79 84 86 87 89 93 98 99 92 83 75 71 74 73 66 53 36 23 14 11 11 11 12 13 16 22 32 48 65 78 86 88 87 87 87 87 87 87 86 85 84 83 81 79 75 70 66 62 56 51 47 44 43 42 41 40 38 38 41 49 68 71 62 40 42 53 65 66 73 87 97 93 82 81 86 95 85 80 78 76 73 71 70 69 70 66 59 47 44 40 37 36 33 33 34 34 26 21 20 20
67 68 71 77 82 86 89 90 94 98 99 98 86 76 75 78 76 69 57 42 27 15 11 11 11 11 12 14 19 28 42 59 72 82 85 85 85 85 85 85 85 84 82 81 79 76 73 68 65 62 60 56 53 50 46 44 43 43 43 41 39 40 47 57 60 55 40 36 44 56 66 70 80 91 99 91 85 81 83 79 76 73 70 68 65 64 64 64 63 58 51 43 37 35 35 35 33 33 34 28 23 21 22
68 69 71 75 80 86 92 92 94 97 99 95 85 77 79 81 78 70 59 46 31 18 11 11 11 11 11 12 16 24 37 53 66 76 81 82 83 83 83 83 82 81 80 77 73 69 66 62 60 59 58 57 54 51 46 43 43 43 44 41 39 39 44 50 50 48 49 40 39 44 53 62 70 77 85 82 80 78 74 71 68 65 63 62 59 57 55 55 51 47 42 37 33 32 32 33 32 31 31 29 26 24 23
73 72 72 74 77 82 91 93 93 94 95 89 82 78 81 83 79 71 60 49 35 22 12 11 11 11 11 11 14 21 31 47 60 71 76 79 80 80 79 78 77 76 76 72 67 62 58 58 58 59 59 59 56 51 45 43 42 43 43 41 39 39 41 45 45 43 43 43 43 44 44 48 53 58 62 63 66 68 66 59 54 51 48 48 47 46 45 43 41 37 35 33 31 30 29 31 30 28 26 26 26 25 22
81 79 77 76 76 79 87 92 92 90 87 81 78 78 83 84 80 72 60 50 39 26 14 11 11 12 11 11 13 18 26 40 54 65 72 75 76 75 73 71 70 69 69 66 60 55 52 54 56 57 58 57 54 49 43 42 42 43 44 43 41 39 39 43 44 45 45 49 52 53 52 50 49 48 48 49 50 51 51 45 42 39 35 37 38 39 38 37 36 35 34 32 29 27 26 27 27 26 24 22 22 21 20
89 87 84 81 77 77 82 89 90 86 81 77 77 79 83 84 81 73 61 51 41 30 16 12 11 12 12 11 12 16 21 33 46 58 66 69 69 68 66 64 62 61 60 58 54 50 48 50 52 52 52 51 49 45 42 43 45 46 47 47 44 42 39 42 44 45 47 50 55 59 57 58 57 55 51 48 46 43 40 37 35 34 33 34 37 39 40 40 40 40 39 35 31 28 26 26 25 24 23 21 20 19 19
94 93 90 86 82 79 81 90 90 86 80 78 79 82 85 85 82 75 63 53 44 33 20 14 12 12 12 12 13 15 18 27 37 47 55 58 59 59 57 56 55 54 53 51 48 45 43 44 45 46 48 49 49 49 48 50 51 52 53 52 50 46 43 42 42 43 45 47 50 51 48 55 62 66 63 57 52 46 41 37 35 34 33 33 33 34 38 40 41 41 40 37 34 31 28 27 26 25 24 22 21 20 19
95 95 93 90 86 83 84 93 95 92 83 84 85 87 88 87 84 77 65 56 47 37 23 16 13 13 13 13 13 15 17 22 28 35 41 44 46 47 49 49 49 49 48 47 44 42 41 40 41 43 48 51 52 53 54 56 57 58 58 58 56 53 49 44 41 40 43 45 46 45 42 45 56 68 74 69 62 55 49 44 41 39 39 37 35 34 35 36 36 36 36 35 34 33 31 29 29 28 26 23 21 19 18
95 97 96 94 90 86 86 94 98 97 92 92 92 93 90 89 86 79 68 60 53 43 28 18 14 14 14 14 14 15 16 19 22 26 29 32 35 38 41 42 43 44 44 44 43 43 42 42 43 45 50 53 55 55 57 60 61 62 63 63 62 61 58 51 45 40 39 42 45 47 45 43 47 57 71 75 72 65 57 50 48 48 47 44 42 41 41 40 38 37 36 35 34 34 33 33 32 30 28 25 21 19 18
96 97 96 95 93 90 87 92 96 98 98 97 96 94 91 91 88 81 70 64 59 51 37 23 16 14 15 16 16 16 17 18 20 21 23 25 28 31 34 36 37 38 40 42 43 44 45 45 46 48 51 53 56 58 60 63 65 66 65 65 66 66 64 60 53 46 39 39 43 47 49 48 49 52 61 70 73 71 61 55 56 58 56 52 50 49 49 47 44 41 37 35 35 35 36 36 35 33 31 27 24 21 19
97 96 95 94 93 91 89 89 91 95 98 99 98 95 92 93 90 84 73 68 65 61 50 33 21 14 15 16 17 17 18 19 20 21 22 23 25 27 29 31 32 34 35 38 41 43 46 48 49 49 50 53 56 58 60 63 66 67 65 65 65 66 67 65 61 55 46 40 40 44 49 53 55 57 58 63 68 69 62 58 61 66 65 60 57 56 58 56 53 47 41 38 37 37 38 39 39 38 36 33 29 26 23
97 95 94 93 92 91 92 89 88 89 94 97 98 98 96 95 91 85 77 71 69 68 63 46 30 18 14 16 17 17 18 19 20 21 22 23 24 26 27 28 29 31 32 34 37 41 45 49 50 51 51 52 54 56 58 61 63 64 62 62 63 65 66 67 66 62 55 46 41 41 47 54 61 65 64 61 62 64 60 57 61 67 69 66 62 61 63 65 62 55 46 41 39 39 41 42 43 43 42 39 36 33 29
97 95 93 90 89 89 91 91 88 85 87 93 97 99 99 97 92 87 80 75 73 72 72 60 44 28 18 17 18 19 19 19 21 22 24 26 27 27 27 27 28 28 29 30 33 37 43 48 51 51 51 51 52 53 54 57 59 60 59 60 62 64 66 67 67 65 60 51 43 39 42 51 60 67 69 64 60 57 56 54 58 64 69 68 64 62 66 71 71 67 59 50 44 41 43 44 46 46 45 44 41 38 33
97 95 91 88 86 86 88 90 88 86 85 88 94 98 99 97 92 87 83 79 76 76 77 70 58 43 32 29 29 30 29 28 29 34 38 40 39 36 32 29 27 26 26 27 29 33 39 46 49 49 47 47 47 47 47 50 53 56 57 60 62 65 66 68 67 65 61 54 46 39 37 49 58 66 71 71 69 65 61 62 64 66 68 70 67 63 66 75 80 81 77 68 59 51 46 45 46 48 49 47 45 42 37
97 95 91 88 86 86 86 87 87 88 90 92 93 94 98 95 91 87 84 82 79 78 80 77 70 61 55 55 54 52 51 49 53 59 63 62 58 51 44 36 30 26 24 24 25 27 31 39 43 44 41 39 39 40 42 47 52 56 59 61 63 65 67 67 67 64 60 54 47 40 36 48 58 67 72 75 77 78 77 70 68 69 68 73 72 69 71 80 87 91 91 86 80 72 62 55 51 50 52 55 54 50 46
96 96 93 91 90 89 88 86 86 89 95 98 96 94 96 96 92 86 84 84 82 81 80 82 80 79 78 83 80 75 73 73 78 83 85 80 74 66 57 49 41 33 27 24 23 23 26 33 38 41 41 39 39 42 47 53 57 60 61 62 64 65 66 65 63 60 57 52 46 41 36 48 60 71 77 77 78 80 82 84 82 78 77 76 76 78 84 91 95 97 97 95 92 89 83 75 67 60 58 62 62 59 54
96 97 97 95 94 93 92 89 87 87 93 98 99 98 97 99 94 89 86 87 87 85 82 85 88 92 94 96 93 89 86 88 92 95 95 90 85 78 72 65 57 49 41 33 29 27 28 36 43 49 50 48 49 52 59 64 66 66 64 64 64 64 62 60 57 54 50 47 43 39 36 41 54 71 84 82 79 77 79 93 96 95 95 92 85 82 91 97 99 100 100 99 98 96 94 90 84 77 68 67 67 65 60
96 98 99 98 97 96 94 93 91 89 88 95 98 98 98 99 97 95 93 94 93 90 85 89 94 97 99 98 97 94 92 93 96 98 99 97 93 90 85 81 76 69 61 53 47 44 45 52 59 62 61 59 62 67 72 73 72 70 67 65 64 62 60 56 52 47 43 39 37 35 33 35 42 55 75 82 81 77 75 86 94 99 100 98 88 81 86 88 92 96 100 100 100 99 99 97 95 91 85 78 74 70 65
98 99 100 99 98 96 94 93 93 92 89 92 94 96 96 98 98 98 99 99 98 94 87 92 96 98 98 97 97 96 94 94 96 98 100 99 98 97 94 92 89 85 81 76 72 70 70 73 75 75 73 74 78 82 83 82 80 77 75 73 70 67 64 59 52 46 39 34 31 29 28 28 29 34 44 60 70 74 75 67 68 74 83 82 78 76 81 82 81 82 89 97 100 99 96 99 99 99 97 90 83 75 70
100 100 100 99 97 94 91 90 90 91 91 91 91 92 92 94 95 97 100 100 98 94 87 92 95 96 94 95 96 96 94 94 95 98 99 100 99 99 97 95 94 93 92 91 89 88 87 87 86 86 85 87 89 90 90 90 89 88 87 86 83 80 76 70 63 56 48 41 35 30 28 28 28 29 31 36 45 54 61 60 54 50 54 79 90 91 83 81 79 77 75 83 83 81 83 93 98 99 97 91 85 80 76
100 100 100 98 95 92 87 85 85 86 87 89 90 91 90 90 92 96 100 100 97 92 84 87 89 90 89 92 93 94 94 93 94 96 98 99 100 100 98 95 93 91 92 92 92 93 93 92 92 92 92 91 90 89 88 88 90 91 93 94 93 92 89 86 81 76 71 65 60 55 51 50 49 48 45 43 39 38 42 47 46 41 39 63 84 93 83 75 70 70 73 77 79 81 84 83 84 85 86 82 82 81 77
100 100 99 97 93 88 84 82 80 80 81 83 86 90 92 92 93 95 100 100 98 93 83 81 80 81 82 86 89 91 93 94 94 95 95 97 99 100 100 97 93 90 88 88 88 89 92 92 92 92 92 91 88 86 83 83 85 87 91 93 95 96 96 96 95 94 93 91 89 88 87 85 83 79 76 69 61 52 44 41 40 39 36 40 46 54 60 57 58 61 67 70 73 74 76 74 75 76 76 72 71 70 69
100 100 98 95 91 87 83 81 80 78 76 75 78 83 91 94 94 95 100 100 98 94 85 81 79 79 80 84 87 90 92 94 94 93 92 94 96 98 100 99 96 92 89 87 86 85 87 90 91 91 91 90 88 86 85 85 85 86 88 89 91 93 95 96 97 98 98 99 99 99 97 96 95 94 92 88 81 74 66 58 51 45 42 38 39 42 45 45 49 55 62 67 70 73 77 76 77 78 76 72 69 68 66
100 99 97 95 92 89 86 88 89 87 82 75 73 75 84 92 94 93 97 99 98 93 87 87 87 87 88 91 94 96 98 98 97 97 99 98 98 99 100 100 99 96 93 90 87 85 85 87 90 92 92 93 92 90 88 87 87 88 89 88 87 87 88 90 92 94 95 96 96 94 93 91 91 91 91 90 88 85 80 74 67 60 54 49 44 42 42 43 47 52 59 64 71 78 80 81 81 80 76 71 69 69 67
99 99 98 98 97 96 95 98 99 98 94 85 76 72 75 88 91 92 98 100 97 93 90 93 96 97 97 98 99 100 100 100 100 100 100 100 100 100 100 100 100 99 98 95 92 89 87 88 90 92 94 98 98 97 94 92 90 88 85 86 86 85 84 84 85 87 90 91 92 91 90 89 87 86 85 84 84 83 82 81 78 74 68 63 58 53 51 49 51 54 57 63 73 80 80 81 82 82 77 78 79 79 75
98 99 99 99 100 99 99 99 100 99 97 93 85 76 71 82 88 93 100 100 98 97 97 99 100 100 100 100 99 99 99 99 100 99 99 99 99 99 99 99 99 99 100 99 96 94 92 92 93 95 97 99 100 99 99 98 96 93 89 85 85 87 86 84 82 83 85 87 88 89 90 90 87 83 80 79 78 78 79 79 79 79 77 75 72 70 68 62 59 57 60 67 74 79 78 78 78 77 76 87 94 96 92
96 95 93 96 97 97 96 97 98 99 99 96 91 84 74 78 86 93 100 100 99 99 99 100 100 100 100 99 98 97 98 98 97 96 95 94 94 94 94 93 94 96 100 100 99 98 97 97 98 99 100 100 99 99 100 100 99 98 95 91 90 90 90 87 84 82 82 84 86 88 89 91 89 85 79 76 76 76 76 76 77 78 79 79 79 79 78 76 76 78 81 87 89 88 84 77 70 66 69 88 97 100 99
88 82 76 80 84 85 84 86 92 96 97 91 88 87 82 84 89 95 99 100 99 99 99 99 99 99 100 99 98 97 96 95 93 91 89 86 85 84 83 83 86 92 100 100 100 100 99 98 99 100 100 99 98 98 99 100 99 98 95 93 93 94 93 91 88 84 82 83 84 86 88 90 92 90 85 80 77 76 76 76 77 78 80 80 81 81 83 78 78 83 90 94 96 96 92 85 79 75 69 80 91 99 99
77 72 68 73 76 77 76 77 82 88 91 84 85 89 94 94 95 96 98 99 99 98 98 98 98 99 98 97 96 95 93 92 90 89 86 84 82 81 81 83 86 92 98 100 100 100 100 99 99 99 99 97 96 96 98 99 98 95 92 93 94 95 95 94 92 88 85 84 84 85 87 89 92 94 93 88 82 78 77 77 78 79 81 82 83 83 83 79 76 76 79 85 89 91 91 91 91 88 78 71 78 89 93
71 66 64 68 72 74 71 70 76 83 87 81 85 93 98 97 96 96 98 99 99 98 98 98 98 98 96 93 91 89 88 88 90 91 90 88 86 85 86 89 92 95 98 100 100 100 100 100 100 99 98 97 95 94 95 96 95 93 92 95 96 96 95 95 94 92 89 88 87 87 88 89 91 93 96 93 87 81 79 79 80 81 82 84 85 85 85 83 80 76 72 72 74 77 81 86 89 89 82 77 76 78 81
70 64 62 61 63 65 62 65 73 81 82 77 82 90 97 98 97 97 98 100 100 99 98 98 98 98 95 92 89 87 87 88 91 93 94 93 90 89 90 92 94 97 99 99 100 100 100 100 100 99 97 96 93 91 90 94 95 95 95 96 96 96 95 95 95 94 92 91 91 91 91 91 92 93 95 94 89 84 80 80 81 82 83 85 86 87 88 88 86 84 79 72 68 67 71 77 81 84 86 88 90 89 85
66 63 61 58 60 61 58 55 63 73 79 78 81 87 93 95 97 98 98 99 100 100 99 99 98 97 96 93 90 88 88 90 92 94 96 96 94 91 90 89 92 95 98 98 99 100 100 100 99 98 97 95 91 88 90 94 96 97 97 97 96 96 94 93 93 93 92 92 92 91 91 91 92 92 93 94 90 86 82 82 83 84 84 85 86 88 91 92 93 91 88 83 75 69 67 70 74 80 87 93 96 97 95
62 58 58 59 61 65 71 59 56 60 68 76 82 85 87 89 92 95 97 99 100 100 100 100 99 97 95 91 88 87 87 89 91 94 96 97 97 95 93 90 90 92 94 94 96 98 99 99 99 98 96 92 88 87 91 96 98 98 97 96 96 95 93 91 91 90 90 90 90 91 91 91 91 92 93 93 92 89 86 86 86 87 87 88 89 91 93 95 97 97 96 93 88 82 76 71 70 72 78 87 93 95 95
59 50 48 58 67 75 84 80 72 64 63 71 79 84 84 81 81 83 87 93 97 100 100 100 100 99 97 93 90 88 88 88 90 92 96 98 99 98 97 94 93 92 93 93 94 95 97 97 97 95 92 87 83 83 89 95 96 94 92 92 92 91 90 89 89 88 88 88 89 89 90 90 91 92 93 94 93 92 91 92 93 93 93 94 94 94 94 94 95 96 98 97 95 92 86 82 77 75 75 82 89 93 95
52 43 37 56 75 88 87 92 91 86 82 85 88 91 91 83 76 73 78 88 95 98 99 100 100 100 100 98 97 96 95 94 93 93 94 97 99 99 98 97 95 93 93 93 94 95 95 95 94 91 87 81 77 78 86 92 91 87 85 86 86 86 86 86 87 87 87 87 88 88 89 90 91 93 95 95 95 95 96 97 97 98 98 97 96 93 91 90 90 91 93 94 94 93 91 89 87 85 83 85 89 94 96
52 45 38 58 76 85 78 83 89 94 95 96 97 96 94 85 76 72 75 82 87 91 96 98 99 99 98 99 99 100 100 99 98 95 93 95 97 99 98 96 94 93 91 91 92 93 93 93 91 88 85 79 76 76 85 89 87 83 81 81 80 80 80 82 84 86 88 89 89 89 90 92 93 95 97 97 98 98 99 98 98 98 97 96 94 93 91 90 90 90 90 91 91 91 91 91 92 92 92 92 93 95 97
66 58 47 54 63 66 60 63 72 82 88 90 91 89 85 73 64 60 61 66 72 78 87 92 95 96 95 95 97 99 99 100 99 97 93 94 96 98 98 96 94 92 90 88 88 89 90 90 90 88 86 82 80 81 87 88 85 80 77 74 72 73 74 77 82 86 90 92 93 93 93 95 96 97 98 99 99 98 97 96 96 96 96 96 95 95 94 94 93 93 92 92 93 93 94 95 95 96 97 97 97 97 98
77 73 60 51 48 45 43 47 53 62 69 71 72 70 68 58 49 43 44 49 54 62 73 80 85 87 89 91 94 97 98 99 99 97 95 95 96 97 97 95 93 90 88 87 87 88 89 89 89 89 88 88 88 89 91 86 80 74 68 65 64 66 71 76 82 87 92 94 95 95 96 97 98 99 100 100 99 98 96 96 97 97 98 98 97 97 97 97 96 95 94 94 95 96 97 98 98 99 99 99 99 98 99
79 82 73 59 47 40 38 40 42 46 49 51 53 54 56 51 43 36 35 37 41 47 57 66 71 74 78 87 94 97 98 99 99 98 97 96 96 96 96 92 90 87 85 84 84 85 85 86 87 87 88 90 91 91 87 79 71 64 57 57 60 66 74 79 86 91 94 95 96 95 95 95 97 99 100 100 99 99 98 98 98 98 98 99 99 99 99 99 98 97 96 96 97 98 99 99 99 100 100 100 99 99 99
75 85 83 68 56 46 41 40 39 37 35 36 38 42 45 43 39 35 34 35 39 45 52 59 62 63 66 84 93 96 96 99 99 99 98 97 96 95 92 89 85 82 79 77 76 76 76 76 77 79 80 81 80 78 73 66 58 52 49 54 62 72 81 85 91 95 97 97 96 95 93 94 97 99 100 100 99 100 100 100 100 99 99 99 99 100 100 100 99 98 97 97 98 99 100 99 99 99 99 99 98 98 99
67 81 84 74 64 54 46 43 40 36 31 29 28 29 31 32 33 33 34 36 44 57 70 70 66 62 61 78 89 94 95 98 99 99 98 96 94 91 88 84 80 75 71 68 65 64 63 63 63 64 65 64 63 60 55 51 47 45 49 57 69 80 85 88 93 97 94 98 99 99 98 98 98 99 100 100 100 100 100 100 99 99 99 99 99 100 100 100 99 99 98 97 97 98 99 100 99 99 99 98 98 98 98
57 71 79 74 66 58 52 49 46 41 35 29 25 24 24 25 27 30 34 36 49 67 86 86 80 74 70 80 89 95 96 98 99 98 97 94 91 86 81 76 71 65 61 57 55 53 53 52 52 53 53 50 47 44 42 42 43 47 55 66 78 87 89 95 98 97 94 97 99 99 99 99 99 99 99 100 100 100 100 98 97 95 95 94 95 97 98 99 99 99 98 98 97 97 97 99 99 99 99 99 99 100 100
47 58 68 67 63 59 54 52 51 48 43 36 30 27 25 25 26 29 33 37 49 65 86 93 90 85 84 86 90 92 94 96 97 96 91 88 85 80 73 66 60 55 51 50 49 49 48 48 48 46 43 41 39 39 41 45 50 57 65 76 86 94 98 99 99 98 96 97 97 97 98 99 99 98 98 98 99 100 100 99 98 97 95 91 91 94 97 96 97 98 99 98 97 96 97 98 99 100 99 99 99 100 100
39 47 55 60 60 57 53 51 51 50 48 45 42 38 33 32 31 31 32 35 42 54 69 79 84 85 85 87 87 87 87 89 90 88 81 77 74 71 66 59 53 48 46 48 50 50 49 46 43 40 37 37 39 44 50 56 62 68 76 87 94 98 100 99 99 99 99 98 98 99 99 100 99 98 97 97 98 99 100 99 98 98 98 99 99 99 98 99 99 100 100 99 97 96 96 98 99 99 99 99 97 96 99
35 40 45 51 53 52 49 47 46 45 47 49 51 50 46 42 39 37 35 35 36 41 50 59 64 67 68 71 75 77 77 77 76 74 70 67 62 58 55 52 49 46 45 46 47 47 46 42 39 37 34 38 43 50 58 66 74 81 90 96 98 99 99 99 99 99 100 100 100 99 99 99 99 98 97 97 97 98 99 99 97 96 98 100 100 99 99 100 100 100 100 99 96 93 90 93 96 98 97 99 99 98 99
36 37 39 42 44 45 44 41 39 38 40 43 47 51 53 50 47 44 41 38 36 35 37 41 44 45 45 46 50 56 60 61 61 59 57 57 55 51 46 46 47 47 48 43 40 38 38 39 39 40 41 44 48 55 65 75 85 93 99 99 99 99 99 100 100 100 100 100 99 99 99 98 98 97 97 97 98 98 98 98 95 93 95 98 99 100 100 99 99 98 100 98 92 85 83 92 98 100 100 99 99 100 100
40 40 39 38 39 39 39 38 36 35 35 36 39 44 49 49 48 46 43 40 37 34 33 32 30 30 32 30 33 38 45 49 49 47 46 46 46 46 48 47 49 51 51 45 37 33 39 51 56 58 60 59 59 64 73 82 91 97 99 99 99 99 99 99 99 99 98 98 97 97 97 96 97 97 97 96 96 94 93 93 91 90 92 92 94 95 94 91 91 93 99 95 88 83 88 97 100 99 96 93 93 96 100
44 45 43 40 39 38 38 38 38 37 36 35 36 39 42 43 42 41 39 37 36 34 32 30 27 25 26 28 30 34 39 45 47 45 43 45 43 43 50 49 49 49 50 46 39 37 48 71 84 89 90 82 77 76 84 91 95 98 100 100 100 100 99 100 100 99 99 99 98 97 96 94 94 94 95 93 91 89 89 91 91 91 90 88 88 87 87 84 85 89 96 94 90 88 95 98 98 94 87 84 85 90 95
46 47 46 43 42 40 40 40 41 42 41 38 36 36 36 37 37 36 35 36 36 35 33 31 28 26 26 29 33 36 38 46 50 51 50 52 52 51 50 50 48 43 37 41 39 40 57 76 87 93 97 97 95 94 98 99 99 99 99 100 99 99 99 99 99 99 99 99 98 97 97 95 94 94 94 93 91 91 94 97 97 97 95 94 93 93 94 92 93 94 98 96 94 94 98 98 95 91 84 82 84 89 93
45 47 48 47 46 45 44 44 45 47 46 43 40 38 36 36 37 37 35 35 35 34 33 32 30 29 28 31 35 39 42 47 52 57 59 58 60 60 55 51 48 45 41 42 38 41 62 83 87 84 87 92 94 95 97 98 98 98 98 97 96 95 96 97 97 97 96 93 93 94 95 98 99 100 99 96 95 97 100 100 100 100 100 100 100 100 100 100 100 100 100 99 99 99 99 99 97 95 92 92 93 95 98
44 47 49 50 50 50 48 48 50 51 51 49 47 45 43 42 41 40 37 36 35 34 34 33 32 30 30 33 37 43 48 52 56 60 67 68 70 70 63 56 53 51 49 45 41 44 61 81 85 82 82 85 85 85 85 89 91 90 89 86 84 82 83 85 86 85 84 82 84 86 89 95 98 99 100 99 99 99 99 99 100 100 100 100 100 100 100 100 100 100 100 100 100 100 100 100 100 99 98 99 100 100 100
44 47 51 53 54 54 53 53 54 56 57 57 55 53 51 49 47 45 43 40 39 37 36 34 33 33 35 37 41 46 53 58 60 64 71 75 80 80 74 65 60 55 52 49 46 48 60 77 81 79 76 80 82 83 82 81 80 80 78 77 75 73 71 72 73 74 74 76 80 84 87 92 95 97 98 99 99 98 97 97 97 98 99 100 100 100 100 100 100 100 100 100 100 100 100 100 100 100 100 100 100 100 100
45 48 52 56 57 58 58 59 60 61 63 64 63 61 58 56 54 52 50 47 45 42 39 37 37 38 41 43 45 48 54 61 66 71 77 79 84 85 82 74 68 62 57 53 50 51 59 73 77 75 72 75 78 81 85 84 82 80 78 79 77 75 72 72 73 74 75 78 82 86 89 92 94 94 95 96 96 95 95 94 93 94 95 98 99 100 100 100 100 100 100 100 100 100 100 100 100 100 100 100 99 99 99
Wind_Speed
21 21 21 22 22 22 23 23 23 22 21 20 20 21 21 20 18 16 14 12 11 12 14 15 15 16 16 17 18 19 21 22 23 23 22 21 19 18 17 16 15 14 13 14 14 14 15 14 14 13 12 12 12 12 10 9 8 7 6 5 6 7 7 8 8 8 8 9 10 11 10 11 10 10 10 11 12 13 13 13 13 12 11 9 8 8 9 9 9 11 12 13 13 10 8 10 12 12 12 12 12 11 11
20 21 22 22 22 22 22 22 23 23 22 20 20 20 20 19 18 15 13 12 12 13 15 15 16 16 16 17 18 19 21 22 23 23 22 20 19 17 16 15 14 13 13 13 13 14 14 14 14 14 13 13 14 13 10 9 8 7 6 6 6 6 6 6 6 7 7 9 11 12 11 11 10 10 9 11 12 13 13 13 12 11 10 8 8 7 7 8 9 10 11 12 12 11 10 9 10 11 11 11 10 10 10
19 20 22 22 22 21 20 20 21 23 22 21 20 20 20 19 17 14 13 12 13 14 15 16 16 16 17 17 18 20 21 23 23 23 22 20 19 17 16 15 14 13 13 12 13 13 13 14 14 14 14 14 14 13 11 10 9 8 8 7 7 6 6 5 5 6 7 11 13 13 11 12 12 11 10 10 11 13 13 13 12 11 9 8 8 7 8 9 10 10 10 10 10 10 9 8 8 8 9 8 8 8 8
19 20 21 22 22 21 19 18 19 22 23 22 21 20 19 18 16 14 13 13 14 15 16 17 17 17 17 18 19 21 22 23 23 23 22 20 18 17 16 15 14 13 13 13 13 13 13 14 14 14 14 14 14 13 11 11 10 10 10 9 8 7 6 5 5 5 7 12 15 15 12 13 13 12 9 9 10 12 13 12 12 11 9 9 9 9 9 10 10 10 10 9 9 9 8 8 7 8 8 7 7 7 7
18 19 21 22 22 22 21 19 19 21 22 22 22 20 19 17 15 14 13 14 15 16 17 17 17 17 17 19 20 22 23 23 23 22 21 20 18 17 16 15 14 13 13 13 13 13 13 14 14 14 14 14 13 13 12 11 11 11 12 12 11 9 7 5 5 5 8 13 17 17 15 15 15 13 9 8 9 11 12 11 11 10 9 9 9 9 9 9 10 10 9 9 8 8 8 8 8 8 8 7 7 6 6
18 19 20 21 21 22 22 20 20 20 21 22 21 20 18 16 15 14 14 14 15 16 17 17 17 17 18 19 21 23 24 24 23 22 21 19 18 17 16 14 14 14 14 14 13 13 13 13 14 13 13 13 13 12 12 12 11 12 13 13 13 11 8 6 6 7 10 15 19 20 19 18 17 15 11 8 7 8 9 10 10 9 9 9 8 8 8 9 9 9 9 9 8 8 7 7 7 7 7 6 6 5 5
19 19 20 20 20 20 21 21 20 20 20 21 20 19 17 16 15 14 14 15 15 16 17 17 18 18 19 20 22 23 24 24 23 22 21 20 18 17 16 15 14 14 14 14 14 14 13 13 13 12 12 12 12 12 12 11 11 11 13 14 14 12 9 8 8 8 11 17 20 21 20 19 16 14 11 8 7 8 8 9 9 9 8 7 7 7 7 7 8 8 8 7 7 6 6 6 6 6 6 5 5 5 5
19 19 20 20 20 20 20 20 21 21 20 19 19 19 17 16 14 14 14 14 15 16 17 18 18 18 19 20 22 24 25 25 24 23 21 20 19 18 17 16 15 14 14 14 14 14 13 12 12 11 11 12 12 12 11 11 10 11 12 14 14 13 10 9 8 9 12 17 21 21 20 18 15 12 10 8 9 10 9 9 10 10 9 8 8 7 6 5 5 6 7 6 6 5 5 5 5 5 5 5 5 4 5
20 20 20 20 20 19 20 21 22 22 21 20 19 18 17 15 14 13 14 14 16 17 17 18 18 19 19 20 22 24 25 25 24 23 22 21 20 19 18 17 16 15 14 14 14 14 13 12 11 11 11 11 11 10 10 10 9 10 11 13 14 13 11 10 9 9 11 16 20 21 20 18 15 12 9 8 9 10 10 10 11 12 11 10 8 8 7 6 5 4 5 5 5 4 4 4 5 5 5 5 5 5 5
20 20 20 20 20 19 20 21 22 23 23 21 19 18 17 15 14 13 13 14 16 17 17 18 18 19 19 20 21 23 24 25 25 24 23 22 21 20 19 18 16 15 14 14 14 13 13 12 11 10 10 10 10 9 9 9 9 9 10 12 13 13 12 11 10 10 11 13 16 19 19 17 15 13 11 9 8 9 9 9 9 9 9 7 6 5 5 5 5 4 3 3 3 3 3 3 4 5 5 5 5 5 5
21 20 20 19 19 19 19 20 22 23 22 21 20 18 17 15 13 13 13 14 16 17 18 18 18 19 20 20 21 22 24 25 25 24 23 22 21 20 19 18 17 16 14 13 13 13 12 12 11 10 10 9 8 8 8 8 8 8 9 10 12 13 13 12 10 9 10 11 12 14 16 16 15 13 12 10 8 8 8 8 8 7 6 5 4 4 3 4 3 3 2 2 1 1 2 3 3 4 4 5 4 4 4
20 20 19 19 19 19 20 20 22 22 22 22 20 18 17 15 13 13 13 14 16 17 18 18 19 19 20 21 21 22 23 24 24 24 23 22 21 20 19 18 17 16 14 13 12 12 12 11 11 10 9 8 7 7 8 8 8 8 8 10 11 13 13 12 10 9 9 9 9 10 11 12 12 12 11 9 8 7 6 6 6 5 4 4 4 4 4 4 3 3 2 2 1 2 2 2 2 2 3 3 4 4 3
20 19 18 18 18 19 20 21 21 22 22 22 20 18 16 15 14 13 13 14 16 18 18 19 19 19 20 21 21 22 22 23 23 23 23 22 21 20 19 18 17 16 15 13 12 11 11 11 11 10 8 7 6 6 7 7 7 7 8 9 11 12 13 12 11 9 8 8 8 8 8 9 10 10 10 9 8 6 5 4 3 4 4 4 4 4 5 5 4 4 3 3 2 2 2 2 2 2 2 2 3 3 3
19 18 18 18 18 19 20 21 21 21 22 22 20 18 16 15 14 13 13 14 16 18 19 19 19 19 20 21 22 22 22 22 23 23 22 21 20 19 18 17 16 16 15 14 13 12 11 11 11 10 9 7 6 6 6 6 6 7 8 9 10 11 12 12 11 10 9 8 7 6 6 7 8 9 9 8 7 6 6 5 4 4 5 5 5 5 5 5 4 4 3 2 2 2 2 2 2 1 1 2 2 2 2
18 18 18 18 18 19 20 20 21 21 21 21 20 18 17 15 14 14 13 14 15 17 19 19 19 19 20 20 21 22 22 22 22 22 21 20 19 18 17 16 16 15 15 14 13 12 12 11 11 10 9 8 7 6 6 6 6 6 7 8 9 10 10 11 11 10 9 8 7 6 5 5 6 7 8 8 7 7 7 6 6 5 5 5 5 5 5 4 4 3 2 2 2 2 2 2 2 1 1 1 1 1 2
18 17 17 17 18 19 20 21 21 21 21 20 20 19 17 16 15 14 14 14 15 17 18 19 20 20 20 20 21 21 22 22 22 21 21 20 19 17 17 16 15 15 15 15 14 13 12 11 11 10 9 8 7 6 6 6 6 6 6 7 7 8 9 10 10 10 10 9 8 6 5 5 5 6 7 7 7 7 7 7 7 6 5 5 5 5 5 5 4 3 3 2 2 2 2 2 2 2 1 1 1 1 1
18 18 17 17 17 18 20 22 23 23 22 21 20 19 18 17 15 15 14 14 15 16 18 19 19 20 20 20 20 21 21 21 21 21 20 19 18 17 17 16 16 15 15 15 14 14 12 11 10 9 9 8 7 6 5 5 5 5 6 6 6 7 8 8 9 9 9 9 8 7 6 6 5 6 6 7 6 7 7 7 7 6 6 6 6 6 6 5 5 4 4 3 2 2 2 2 2 1 1 1 1 1 1
18 18 18 18 17 18 19 22 23 23 23 22 21 20 19 17 16 15 15 15 15 16 17 18 19 19 20 20 20 20 20 20 20 20 20 19 18 18 17 16 15 15 14 14 14 14 12 11 10 9 8 8 6 5 4 4 4 4 4 5 5 6 7 7 8 8 8 9 8 8 7 7 6 5 6 6 6 7 7 7 7 7 7 7 6 6 6 6 6 5 5 4 3 3 2 2 1 1 1 1 1 1 1
19 19 19 19 18 18 18 20 21 21 21 21 20 19 18 17 16 15 15 15 15 15 16 17 18 19 19 19 19 19 19 19 19 19 18 18 17 17 16 16 15 14 14 14 13 13 12 11 10 8 8 7 6 5 3 2 2 3 3 4 5 5 6 6 7 7 8 8 7 7 7 7 7 6 5 5 6 7 7 7 7 6 6 6 6 6 6 6 6 6 6 5 4 3 3 2 1 1 1 1 1 2 2
20 20 19 19 19 19 19 19 20 20 20 20 20 18 17 17 16 16 15 15 15 15 15 16 17 18 19 19 19 18 18 18 17 17 17 16 16 16 16 15 15 14 14 13 13 13 12 11 10 8 7 7 6 5 3 2 1 1 2 3 4 5 5 6 6 7 7 7 7 6 6 7 7 7 5 5 6 7 7 6 6 5 5 5 6 6 6 6 7 7 6 6 5 4 3 2 1 1 1 2 2 2 2
20 19 19 18 18 19 19 19 19 20 20 20 20 20 19 18 17 16 16 16 15 15 15 16 16 18 18 18 18 18 17 17 16 16 15 15 15 15 15 15 15 14 14 13 13 12 12 11 10 8 7 6 6 5 3 2 0 1 2 3 3 4 4 5 6 6 6 6 6 5 5 5 6 7 7 6 6 7 6 5 4 3 3 4 4 5 6 6 7 7 7 6 5 4 4 3 2 1 1 2 2 2 2
19 18 17 17 17 18 18 18 19 19 19 20 20 21 20 19 18 17 17 17 16 16 15 16 16 17 18 18 17 16 16 16 16 15 15 15 15 15 15 15 15 14 14 13 13 12 12 11 10 8 6 5 5 4 3 2 1 1 2 2 2 3 4 4 5 5 6 6 5 5 4 4 5 6 7 7 6 5 5 4 3 2 2 2 3 4 4 5 6 7 6 6 5 4 3 2 1 1 0 1 1 2 2
18 17 17 17 17 17 17 17 18 18 17 17 18 19 19 18 18 18 18 18 17 16 16 16 17 17 18 18 17 16 15 15 15 15 14 14 14 14 14 14 14 14 14 13 13 12 12 11 10 8 6 5 4 4 3 2 1 1 2 2 2 2 3 3 4 4 5 5 5 4 4 3 3 4 5 6 6 4 3 3 2 1 1 1 1 2 2 3 4 5 5 5 5 5 4 2 1 1 1 1 1 1 1
18 17 16 16 16 16 16 16 17 18 17 16 16 17 17 16 17 18 19 18 17 16 16 17 17 18 18 18 17 16 15 15 15 15 15 14 14 14 14 13 13 13 13 13 12 12 11 10 9 7 6 5 4 3 3 2 1 2 2 1 1 1 2 3 3 3 3 4 4 3 3 2 1 2 2 4 4 4 2 2 1 1 2 2 2 1 1 1 2 3 3 3 4 4 4 4 3 3 2 2 2 1 1
18 16 15 15 15 15 15 15 16 17 18 18 17 17 17 17 17 17 18 19 18 17 16 16 17 18 17 16 16 16 15 15 15 15 14 15 15 14 14 13 12 12 11 12 11 11 11 10 9 8 6 5 4 4 3 2 2 1 1 1 2 2 3 3 3 3 3 3 2 2 2 1 0 0 1 0 2 3 2 1 1 3 4 4 3 1 0 1 2 4 4 4 5 5 5 5 5 5 4 4 3 3 2
18 17 16 16 16 15 15 15 16 17 18 18 18 18 19 19 18 18 19 20 19 17 15 16 16 16 15 14 14 15 16 16 16 14 14 13 13 14 14 13 13 12 11 11 11 11 11 10 9 8 7 6 6 5 5 4 4 4 4 4 4 4 4 4 3 3 3 2 2 1 1 1 1 1 2 2 0 1 1 0 2 3 5 5 4 3 1 2 2 3 4 5 6 6 5 6 6 6 7 6 5 5 4
19 19 19 18 17 16 15 15 15 16 17 18 19 19 19 19 19 19 20 21 19 17 15 16 16 16 14 13 14 15 17 17 17 15 13 12 12 12 12 12 13 13 12 12 11 11 11 10 10 9 8 8 8 7 7 7 7 7 7 6 6 5 5 4 4 4 3 3 2 2 1 2 2 2 2 2 2 1 1 1 1 2 3 3 3 3 3 3 3 3 3 4 5 6 5 6 7 7 8 8 7 6 6
21 20 20 20 19 17 16 15 15 15 16 17 18 19 19 18 19 20 20 20 17 15 16 17 18 17 16 15 15 16 17 18 18 16 14 13 12 11 10 10 11 12 13 13 13 12 11 10 10 10 9 9 8 8 8 8 8 8 8 7 7 6 5 5 5 4 4 4 3 3 3 2 3 3 3 3 3 2 2 2 2 1 1 1 3 5 5 5 5 4 4 5 6 6 5 6 6 7 8 8 8 7 7
20 20 20 20 19 17 16 15 15 15 15 16 17 18 18 18 18 19 19 18 16 15 16 18 19 19 18 17 17 17 17 18 18 16 14 13 13 12 10 9 9 10 11 12 13 12 11 10 10 9 9 8 8 8 8 8 9 9 8 7 7 6 5 5 4 4 4 4 4 4 4 4 4 4 4 4 4 4 4 4 4 4 3 1 3 5 6 6 5 5 5 6 6 6 6 6 7 7 7 7 7 7 7
19 18 18 18 17 17 16 15 15 14 15 16 16 17 18 18 17 18 19 19 17 15 16 17 18 18 17 17 16 15 15 15 15 14 12 11 11 11 11 9 8 8 9 10 11 12 11 10 9 9 8 7 6 6 7 7 8 8 8 7 6 5 5 4 3 3 3 3 4 4 4 5 5 4 4 4 4 4 4 5 5 5 5 4 4 5 6 6 5 5 6 6 6 7 7 7 7 7 7 7 7 7 7
17 17 16 16 15 16 16 15 14 13 14 15 16 17 18 18 18 18 19 19 18 17 16 17 16 16 16 16 15 13 12 11 10 9 8 7 7 8 10 10 9 8 8 8 9 10 11 10 9 8 7 6 5 5 5 5 6 6 7 6 6 5 4 3 2 2 2 2 2 3 4 4 4 4 4 4 3 3 4 4 5 5 6 6 6 6 6 6 6 6 6 7 7 7 7 8 7 7 6 6 7 7 7
16 16 15 14 14 14 15 15 15 14 13 13 15 17 18 19 19 18 18 19 19 18 16 15 15 16 16 16 15 13 10 9 7 6 6 6 6 7 9 11 11 10 9 9 8 9 9 10 9 8 7 5 5 4 4 3 3 4 5 5 5 4 4 3 2 0 1 1 1 1 2 3 4 4 4 4 3 3 3 3 4 5 6 7 7 8 8 7 7 7 7 7 7 7 7 8 8 7 6 7 7 8 8
13 16 16 14 14 14 15 16 17 16 12 11 13 16 18 20 20 19 18 19 20 19 17 15 16 16 16 16 15 13 11 9 8 7 8 9 8 8 9 9 9 10 11 10 10 9 8 8 8 8 7 6 5 4 3 2 1 2 3 3 3 3 3 2 1 0 1 2 1 1 1 2 3 3 4 3 3 3 2 3 3 4 5 6 8 8 8 8 7 7 7 8 8 8 8 8 8 7 7 7 7 8 9
8 11 13 14 15 15 16 15 15 15 11 8 9 13 17 20 21 20 20 22 22 20 18 17 17 17 15 13 12 12 11 10 10 10 11 10 9 9 9 9 9 10 11 12 11 10 8 8 7 8 8 7 7 5 3 2 2 2 1 2 2 2 2 2 1 1 1 2 2 2 1 1 2 3 3 3 3 3 3 3 3 4 5 6 7 8 8 8 7 7 7 8 8 9 9 9 9 8 7 7 8 8 9
10 10 8 10 12 11 9 7 9 11 9 6 5 8 14 19 21 22 23 25 24 21 19 18 18 16 14 10 9 9 9 10 11 11 11 10 9 9 10 10 9 9 11 13 12 11 9 8 8 9 9 8 7 5 4 4 4 4 4 4 4 3 3 3 3 3 2 1 1 1 1 1 1 1 2 2 3 3 3 3 3 4 4 5 6 7 8 8 8 8 8 9 9 10 10 10 10 9 8 7 8 9 10
13 13 12 10 8 7 6 6 5 6 9 7 3 7 13 19 22 23 25 25 23 20 17 16 16 16 14 11 9 7 8 9 9 9 8 8 8 9 9 9 8 8 10 13 13 12 11 9 9 10 10 8 6 5 5 5 5 5 5 6 6 6 6 5 5 4 3 2 2 1 1 1 1 1 1 1 2 3 3 3 3 3 4 5 6 7 7 8 8 9 9 10 10 11 11 12 11 11 9 7 7 9 11
11 12 13 13 11 11 11 10 9 8 11 10 7 8 10 14 18 21 23 23 20 17 14 13 13 13 12 11 9 8 8 8 7 6 6 6 7 7 8 9 8 8 10 12 13 13 13 11 11 11 10 8 6 5 5 5 5 5 5 6 6 6 7 6 5 5 4 3 3 3 3 3 3 2 2 2 2 2 3 3 3 3 3 4 5 5 6 7 7 8 9 10 11 11 12 12 12 12 11 9 8 9 11
8 9 9 9 10 11 12 13 13 13 13 12 11 9 7 5 8 14 19 20 19 16 12 10 10 9 9 9 8 8 8 7 6 5 5 5 5 6 7 8 9 9 11 12 13 14 14 13 13 11 10 7 5 4 4 5 5 4 4 4 5 5 6 5 5 4 4 3 3 3 3 3 3 3 3 3 2 2 2 3 3 3 3 3 4 5 5 6 7 8 9 10 11 12 12 12 12 13 13 12 11 11 11
6 7 6 5 5 6 9 13 16 17 18 16 16 14 10 7 4 3 11 16 17 15 11 10 9 9 8 8 8 8 7 6 6 5 5 5 5 5 6 7 8 10 11 11 13 14 14 13 12 11 9 7 5 4 3 4 4 3 3 3 4 4 4 4 4 3 3 3 3 3 3 3 3 3 3 4 3 2 1 2 3 3 3 3 4 4 5 5 6 7 8 10 11 12 12 12 12 13 13 13 13 13 13
5 7 8 8 7 6 5 7 9 12 17 19 20 20 17 10 6 5 1 7 12 13 10 10 9 9 8 8 8 8 8 7 7 7 6 6 5 4 5 5 7 8 9 10 11 12 12 12 11 9 8 7 5 4 3 3 3 3 2 3 3 4 4 3 3 3 2 2 2 2 2 2 2 2 3 3 4 3 1 2 3 4 4 4 4 4 4 5 6 7 8 9 10 11 12 13 13 13 12 12 13 14 14
7 9 10 11 12 12 11 9 8 9 12 16 19 19 17 13 10 9 9 4 4 7 9 9 9 9 8 8 8 8 8 9 8 8 7 6 5 5 4 4 5 6 7 7 8 9 10 10 10 9 8 7 6 5 5 4 3 3 2 3 3 4 3 3 2 2 2 2 2 2 2 1 1 1 2 3 4 3 2 3 4 4 5 5 4 4 4 4 5 6 7 8 10 11 12 12 13 13 13 13 13 14 15
9 12 13 13 13 14 16 17 16 15 14 16 17 17 17 15 14 13 13 13 10 7 8 8 9 9 9 9 9 9 9 9 9 8 7 7 7 7 6 5 5 5 5 6 6 7 8 9 9 9 9 8 7 6 5 4 3 2 2 3 4 4 4 3 3 2 1 1 1 1 1 1 1 1 2 3 3 3 3 4 4 5 4 4 4 4 5 5 6 7 7 8 9 10 11 12 13 13 14 14 14 14 15
14 16 16 14 13 13 17 19 20 19 19 19 20 21 21 21 19 18 19 19 17 14 13 11 10 11 11 11 11 11 11 11 11 10 9 8 8 8 8 7 6 6 6 6 6 7 8 8 9 9 9 9 8 7 6 4 3 2 2 3 4 4 4 4 4 3 2 2 2 2 2 2 1 2 2 2 2 1 2 3 4 4 4 5 6 7 8 8 8 8 8 9 10 10 11 11 12 13 14 14 14 15 15
18 19 18 16 15 15 17 19 20 21 21 21 22 24 24 24 23 22 22 20 19 18 17 16 15 14 15 15 15 14 14 13 13 12 11 10 10 10 10 8 7 6 6 6 7 8 8 9 9 9 10 9 9 7 6 4 4 3 4 4 5 5 5 5 4 3 3 3 3 3 3 3 3 3 3 3 2 3 3 4 5 6 7 8 9 10 9 9 9 9 9 10 10 11 12 12 12 12 13 14 14 14 15
18 18 18 18 18 18 18 19 20 21 22 22 23 24 24 24 23 23 22 21 20 19 19 19 18 18 17 17 16 16 15 15 15 14 13 12 12 11 10 9 8 7 6 6 7 7 8 8 8 9 9 8 8 7 6 5 5 5 6 6 6 6 5 5 4 3 3 2 2 2 2 3 3 3 4 4 5 7 7 7 7 8 8 9 9 9 9 9 8 8 8 9 9 10 11 11 11 11 11 12 13 13 13
17 17 18 19 20 19 18 19 20 21 22 23 23 23 24 23 23 22 21 21 20 20 20 20 19 19 19 17 16 15 15 15 15 15 14 13 13 12 11 10 8 7 7 6 7 7 7 7 7 7 6 6 6 7 7 7 7 7 7 7 7 6 6 5 4 3 3 2 2 1 2 2 3 5 6 7 8 9 8 7 8 8 9 9 9 9 8 8 8 8 8 8 8 8 8 9 9 9 9 10 11 11 12
17 17 18 19 19 18 18 18 19 20 21 22 23 23 23 23 22 21 21 21 20 20 20 20 19 19 18 16 15 14 15 15 15 14 14 13 13 12 11 10 9 9 8 7 7 7 7 7 6 6 6 6 6 7 8 8 8 8 8 8 7 6 6 5 5 4 3 3 3 3 4 5 6 7 9 9 9 9 9 9 9 10 10 10 9 9 8 8 8 8 7 7 6 6 6 6 6 7 8 9 10 10 11
19 18 19 19 19 18 17 17 18 19 20 21 22 22 22 22 21 21 20 20 19 19 20 19 19 18 18 16 15 15 15 15 15 15 14 13 13 13 12 11 11 10 9 9 9 8 8 8 7 7 7 7 8 8 9 9 9 9 8 8 7 7 6 6 5 4 4 5 6 7 7 7 8 9 10 10 10 10 10 10 11 11 10 10 10 9 8 8 8 8 7 7 6 5 4 4 4 5 6 7 8 9 10
20 20 19 19 19 18 17 17 17 17 18 19 20 21 21 21 21 20 20 19 19 19 19 19 19 18 18 17 16 16 16 16 16 16 15 13 13 13 13 13 12 12 11 11 10 10 9 8 8 8 8 9 9 9 10 10 9 9 8 7 7 7 7 6 5 5 7 8 8 8 8 8 9 10 10 10 11 11 11 11 12 12 11 10 10 9 9 9 9 8 8 8 7 6 5 4 4 5 6 7 7 7 8
21 21 21 20 19 18 18 17 17 17 17 18 18 19 19 19 20 20 20 20 20 20 20 19 19 19 18 17 17 17 17 18 17 16 15 14 14 13 13 13 13 13 12 11 11 10 9 8 7 7 8 9 9 9 9 9 9 8 7 7 7 6 5 4 4 6 8 8 8 8 8 9 9 10 10 11 11 11 11 12 12 12 11 11 10 9 9 9 9 10 9 9 8 7 7 7 7 6 6 5 5 6 5
22 22 21 21 20 19 18 17 17 17 17 17 18 18 18 18 19 20 20 20 21 21 20 20 19 19 18 18 18 18 18 18 18 16 15 15 15 14 13 13 12 11 11 10 10 9 8 7 7 7 8 9 9 9 9 9 8 7 6 6 6 6 4 4 7 8 8 8 8 9 9 10 10 10 10 11 11 11 11 12 12 12 12 12 11 11 11 11 11 11 11 9 8 8 8 9 8 6 5 2 7 12 11
21 22 22 21 20 19 18 18 17 17 17 17 17 17 18 18 18 19 20 20 21 22 21 20 20 19 19 18 18 18 18 18 18 17 15 14 14 15 14 13 11 10 10 9 8 8 7 6 6 7 8 9 9 9 8 8 7 7 7 6 6 5 6 8 9 9 10 10 10 10 10 11 11 11 11 11 11 11 12 12 12 12 13 13 13 12 12 12 12 12 11 9 7 8 9 10 10 9 6 2 5 7 9
20 21 21 20 19 19 18 18 17 17 17 17 17 17 17 18 18 18 19 19 20 21 21 21 20 19 19 19 18 18 18 18 18 17 16 14 13 13 14 12 10 9 9 8 8 7 6 6 7 8 9 9 9 8 8 8 7 7 6 5 6 7 9 10 11 11 12 12 12 11 11 12 12 11 12 12 12 12 12 13 13 13 13 12 12 11 10 9 9 10 10 8 7 8 11 12 12 11 8 5 5 5 5
19 20 20 20 19 18 18 17 17 18 18 18 18 18 18 18 18 18 18 18 19 19 19 20 20 19 18 18 18 18 18 18 18 17 16 16 14 11 10 11 11 11 10 8 7 6 6 7 8 7 7 8 8 9 9 10 9 9 8 8 9 10 10 11 11 12 13 13 13 13 12 12 12 12 12 12 12 12 12 13 13 13 13 13 12 11 10 8 8 10 10 8 8 10 12 14 14 12 9 10 10 9 7
18 19 19 19 19 18 18 17 17 17 17 18 18 18 18 18 18 18 18 18 18 18 17 18 18 18 17 17 17 17 16 17 17 16 16 16 15 12 10 10 10 10 9 8 7 6 6 8 8 6 6 7 9 11 12 13 12 12 11 12 12 12 12 12 12 12 13 13 13 13 13 13 12 12 12 12 12 12 13 14 14 14 14 14 14 14 13 12 12 12 12 11 11 12 13 14 13 11 12 13 15 16 16
17 18 18 18 18 18 18 17 17 17 17 17 18 18 19 18 18 18 18 17 17 17 17 16 16 16 16 15 15 15 15 15 15 15 14 14 14 14 13 11 8 6 6 6 7 9 11 11 11 11 10 9 11 13 14 14 14 13 13 13 13 14 14 14 14 14 13 14 14 14 14 14 13 13 13 12 12 12 14 15 15 15 14 14 15 15 15 14 15 15 15 14 14 14 15 15 14 14 16 17 17 18 19
17 17 18 18 18 18 18 17 16 16 16 17 17 18 18 18 18 18 18 17 17 16 16 15 15 15 15 14 14 14 14 14 14 14 13 13 13 14 14 13 11 9 6 6 9 12 15 15 13 12 12 12 13 13 13 14 13 13 13 12 13 14 15 15 15 14 13 13 12 13 13 14 14 14 15 14 14 14 15 15 15 14 14 14 14 15 16 16 17 17 17 17 17 16 16 16 15 16 18 19 19 19 19
17 17 18 18 18 18 17 17 16 16 16 16 17 17 17 18 18 18 18 17 16 16 15 14 14 14 14 14 14 14 15 15 14 14 14 13 13 13 14 14 13 12 9 7 10 14 17 16 14 12 14 15 14 13 12 13 13 12 12 11 11 12 13 13 13 12 11 11 10 10 11 11 12 13 14 15 15 14 13 11 10 10 10 10 11 11 12 12 13 14 15 16 16 16 16 15 15 16 17 19 19 19 19
17 17 18 18 18 18 18 17 16 16 16 16 16 16 17 17 17 17 17 16 16 15 14 14 14 14 13 13 14 14 15 16 16 15 14 14 14 14 14 14 13 12 11 10 11 15 17 15 15 15 17 16 15 14 13 12 12 11 11 10 10 10 10 10 9 9 9 9 9 9 9 9 8 8 10 12 12 12 9 7 6 6 7 7 7 7 7 7 7 8 9 10 11 11 12 12 12 13 14 16 17 17 16
17 17 18 19 19 18 18 17 17 16 16 16 16 16 16 17 17 16 16 15 15 14 14 14 14 13 13 13 14 15 16 17 17 16 16 15 15 15 14 13 13 12 12 11 13 15 18 17 16 16 16 17 17 16 14 13 12 11 11 10 9 9 9 8 8 8 8 8 8 8 8 8 8 8 8 8 9 9 8 8 8 8 8 7 6 6 5 5 4 4 5 5 5 5 6 7 7 8 9 11 12 13 13
17 18 19 19 19 19 19 18 18 17 17 16 16 16 16 16 16 16 16 15 15 15 14 14 13 13 14 14 15 16 17 17 17 17 17 16 16 16 15 14 13 13 13 13 15 17 18 18 18 17 16 17 18 17 16 14 12 12 12 10 9 9 9 8 8 7 7 7 7 7 8 8 8 9 9 9 9 8 9 9 10 11 11 10 9 8 7 7 7 7 7 8 8 8 8 8 7 8 9 11 13 14 16
Wind_Direction
157 159 158 156 156 156 155 153 149 147 149 154 157 156 154 154 153 152 150 147 145 144 143 142 142 141 140 139 139 141 144 148 150 150 150 148 147 145 144 141 136 127 117 108 102 98 95 94 94 95 98 104 107 106 100 91 86 79 65 45 31 28 33 45 56 68 82 101 113 116 113 111 110 110 116 127 136 144 147 144 143 144 143 135 125 120 119 119 115 111 109 111 112 111 103 98 98 98 96 94 92 89 85
157 159 159 159 159 159 159 156 152 150 152 157 160 159 156 155 155 154 152 151 148 146 145 144 143 142 140 139 139 141 144 148 150 151 150 149 147 145 143 141 137 131 121 112 104 98 95 93 92 93 98 107 109 106 97 87 79 70 56 40 30 26 30 41 55 67 81 101 108 109 108 115 115 112 112 118 128 136 143 144 146 148 146 135 125 119 115 116 113 110 110 114 117 115 109 104 102 101 99 97 95 92 88
159 160 160 160 160 159 158 158 155 153 155 160 162 161 158 156 155 155 153 152 150 147 145 144 143 142 140 138 138 141 144 147 149 150 150 148 146 144 143 142 140 134 125 116 108 102 99 96 95 96 100 104 104 100 93 87 78 67 55 45 39 35 35 44 57 70 83 101 105 103 104 115 117 115 115 116 123 131 137 140 143 145 143 134 126 119 114 112 110 108 108 112 117 118 113 109 103 98 96 94 90 85 82
162 161 161 161 159 156 154 159 158 156 157 160 162 160 157 155 154 153 152 151 150 147 145 144 142 141 139 138 138 140 143 146 148 149 148 147 145 144 144 143 140 135 126 119 113 108 105 102 100 101 103 103 100 96 92 86 77 66 55 49 46 46 48 57 68 81 94 108 108 105 106 115 121 124 124 123 127 132 136 138 139 139 135 129 123 117 112 109 108 107 106 108 111 114 114 109 101 95 93 91 88 84 81
165 162 162 161 158 155 155 161 161 158 158 159 158 156 154 153 151 150 150 150 149 147 145 143 142 141 139 139 139 141 143 145 147 147 146 145 144 144 144 143 139 134 129 123 118 113 110 107 105 105 106 105 101 96 92 85 75 64 54 49 48 51 59 73 87 99 109 118 116 112 114 124 132 135 137 133 133 136 139 140 140 138 134 128 122 117 113 109 108 109 108 106 105 105 107 104 97 92 90 89 88 86 83
166 164 162 161 158 157 157 161 160 158 157 156 155 153 152 150 148 147 146 148 148 148 146 143 142 141 140 140 141 142 144 145 146 146 144 143 143 144 144 142 138 134 131 127 122 118 114 111 109 107 106 104 100 96 92 84 75 64 55 49 48 52 65 86 100 110 120 128 126 123 125 131 138 145 153 149 137 132 140 143 143 140 135 131 128 124 118 112 110 110 110 108 106 104 101 96 90 87 88 88 87 87 84
168 166 163 161 159 158 158 159 157 156 155 155 154 152 151 149 146 144 145 148 149 149 147 144 142 142 141 142 143 145 146 147 146 145 143 143 143 145 145 143 139 136 133 129 125 121 118 115 112 108 105 102 99 96 92 84 75 64 55 49 48 53 70 97 106 112 125 135 136 135 137 140 150 164 175 167 140 126 136 138 134 128 123 124 120 115 113 111 112 112 110 106 103 98 94 85 81 83 87 88 87 85 81
170 168 165 162 161 159 158 157 156 155 156 158 156 153 151 149 146 145 146 149 150 150 148 146 144 143 143 144 145 147 148 149 148 146 144 143 144 145 145 144 141 138 134 130 126 123 121 118 114 109 105 101 98 95 90 83 73 63 54 49 47 53 74 100 108 113 127 140 144 145 146 151 161 174 185 173 147 136 139 136 130 127 126 124 119 112 105 102 105 110 111 109 103 94 84 77 79 85 90 92 90 86 79
171 169 167 164 163 161 159 158 157 157 161 163 160 155 153 150 148 147 149 151 152 152 150 148 146 144 144 146 147 150 151 151 150 148 146 145 144 144 143 143 142 139 136 132 129 126 123 120 116 111 106 103 99 95 88 81 73 63 55 50 48 54 72 97 110 114 123 140 149 152 153 157 160 164 169 166 153 147 149 144 141 141 142 137 133 128 122 120 120 120 115 115 109 99 86 81 84 91 97 99 97 92 84
170 170 169 167 165 164 162 160 160 161 164 165 162 158 155 152 149 149 150 152 154 154 153 150 148 146 146 147 149 151 153 153 152 151 149 147 146 144 143 143 142 141 139 136 133 130 127 124 120 116 110 106 102 96 89 82 75 66 57 51 49 54 67 89 106 112 115 132 148 157 160 160 160 159 159 160 157 157 162 163 162 160 159 158 153 146 139 140 144 143 131 125 118 108 97 94 98 103 105 104 101 95 89
170 170 170 169 169 167 165 163 163 165 167 166 164 160 157 154 152 150 151 153 155 156 155 153 150 148 147 148 150 153 155 156 155 154 153 151 149 148 146 145 145 144 144 143 140 136 133 129 126 122 117 113 108 99 90 83 77 68 60 55 52 54 64 79 92 101 106 116 135 152 163 167 168 166 164 163 161 165 177 183 187 189 189 192 198 197 179 164 155 149 142 135 119 107 108 112 114 118 115 110 103 95 87
169 169 170 171 172 172 169 167 166 167 168 167 165 163 160 157 154 151 151 154 156 158 157 156 153 151 149 149 150 153 156 158 158 158 157 155 154 153 151 150 150 150 151 151 148 144 140 136 133 129 125 122 115 104 93 85 78 71 64 58 54 55 60 71 80 84 88 97 113 132 151 164 173 176 176 174 168 166 177 186 191 190 182 180 185 183 172 157 142 129 118 101 85 82 96 107 116 118 117 113 106 97 86
169 169 170 173 175 175 174 171 169 168 168 168 167 165 163 160 157 153 152 154 157 159 159 158 156 154 152 150 150 152 155 158 160 160 160 159 159 158 158 157 156 156 157 158 156 152 147 142 139 136 134 132 124 110 97 88 80 72 65 60 56 54 56 63 70 76 77 83 94 110 127 143 157 168 174 174 170 163 158 149 137 123 112 119 128 135 133 127 120 109 96 83 70 65 70 84 94 95 88 88 93 93 89
171 169 171 173 176 178 177 175 172 170 169 170 169 168 167 165 161 156 153 155 159 161 161 161 159 157 155 153 152 152 154 157 160 161 162 162 163 162 162 162 161 160 161 161 161 158 153 148 145 143 142 140 134 120 104 91 81 72 65 60 56 54 53 56 61 67 72 76 84 95 105 120 135 147 154 155 152 145 135 119 101 86 81 92 104 113 116 114 107 95 83 74 66 61 60 65 72 77 69 65 68 71 75
173 171 172 174 176 177 177 176 175 174 173 173 172 172 171 169 165 159 155 157 160 162 162 162 162 160 158 156 154 153 154 156 158 161 162 163 164 165 164 163 162 161 161 161 161 161 158 154 150 147 146 144 138 125 109 94 81 71 65 59 55 52 51 51 54 58 63 69 76 83 90 105 123 137 144 142 134 126 119 109 97 84 74 77 88 99 105 102 95 85 77 74 72 70 68 64 63 68 71 71 67 60 52
175 174 175 175 175 175 175 174 175 177 177 177 177 178 176 173 168 162 157 158 161 162 163 164 164 163 161 159 157 156 155 156 158 160 162 163 165 165 164 163 161 160 160 160 161 162 162 158 154 150 148 146 140 128 112 96 81 71 65 59 53 50 48 47 48 50 54 60 65 71 78 94 117 137 147 143 131 117 111 104 95 86 78 75 77 83 87 85 82 77 75 76 77 80 77 70 65 61 63 62 57 50 39
175 175 175 176 176 175 174 175 176 176 176 177 181 182 180 177 171 165 160 160 160 161 163 165 166 166 165 163 161 159 159 158 159 161 162 164 165 165 165 163 162 161 161 161 162 164 165 163 159 154 150 147 141 131 115 99 82 71 65 58 52 46 43 41 41 43 46 51 57 64 71 80 104 131 146 147 136 121 113 105 97 89 85 83 81 80 78 75 73 71 71 75 80 84 87 82 71 58 48 37 24 17 16
178 178 176 177 177 177 176 178 179 176 172 174 180 183 181 178 173 168 163 162 160 159 161 165 168 169 168 167 165 164 163 163 162 163 164 165 166 166 166 165 165 165 164 165 166 167 168 168 165 159 152 147 143 135 123 103 81 66 59 54 49 42 37 33 32 35 38 43 49 58 67 74 87 110 135 143 141 132 120 109 99 92 89 88 86 83 78 76 75 74 76 79 84 91 96 96 83 56 32 17 8 4 5
182 182 180 178 178 179 180 181 182 179 173 172 176 181 181 180 176 171 166 164 161 159 159 164 169 171 171 171 170 169 168 168 167 167 168 168 169 169 169 170 170 170 170 170 170 171 172 172 170 164 155 147 142 138 134 113 77 53 45 46 43 38 31 26 23 24 27 33 41 51 63 70 76 86 111 134 144 141 129 116 102 93 90 90 90 88 84 80 78 78 80 84 90 97 104 106 92 51 25 15 9 5 5
185 185 184 182 181 181 182 183 183 181 178 174 174 178 183 183 180 175 169 168 164 160 159 163 168 171 173 174 174 174 173 173 173 173 173 173 174 174 175 175 176 175 176 175 176 175 175 175 174 171 161 151 144 143 144 135 74 27 20 30 34 32 27 21 16 15 16 21 29 42 57 68 71 75 88 117 139 143 137 124 108 94 89 90 93 93 90 84 79 76 77 81 89 98 104 107 97 66 42 25 16 7 1
187 187 185 185 184 184 183 185 184 182 180 177 175 178 185 186 183 177 172 171 168 164 161 162 166 169 172 174 175 176 177 177 177 177 178 179 180 181 181 182 182 181 181 180 179 179 178 178 179 178 172 160 152 151 151 149 139 346 350 10 21 25 22 17 12 8 7 9 16 29 47 63 70 73 79 98 122 137 139 133 120 104 92 90 95 97 95 87 78 71 66 68 75 87 96 105 100 79 54 37 22 12 1
187 186 186 186 186 185 185 185 185 184 182 179 178 180 186 186 184 179 175 173 170 167 164 164 165 167 169 171 173 174 176 177 177 177 178 179 181 183 185 186 186 186 185 184 182 181 181 182 184 185 183 173 163 155 150 149 173 288 319 346 8 19 20 15 9 5 1 1 5 12 26 51 70 75 75 84 101 122 141 153 157 143 113 95 95 99 98 89 78 69 61 55 53 58 68 81 89 81 41 24 22 17 4
186 185 185 185 184 184 184 184 184 183 181 183 184 183 184 185 184 181 178 175 171 169 167 168 168 168 169 168 168 168 171 172 171 171 171 172 174 176 179 182 185 187 187 186 185 184 184 184 185 186 185 179 169 157 146 149 194 262 289 316 356 19 21 17 10 4 0 358 358 360 5 30 62 76 74 75 80 97 135 162 168 153 86 65 71 88 94 80 70 65 57 46 35 27 23 18 9 349 318 288 321 4 11
183 183 184 183 182 181 182 183 182 181 180 185 187 185 182 186 187 184 181 178 174 170 170 171 171 172 174 168 163 161 165 166 164 161 159 159 159 161 164 168 173 178 182 184 185 184 183 182 180 179 178 174 165 151 140 154 209 247 264 278 9 43 37 30 20 12 5 360 355 354 1 15 42 68 77 71 71 76 93 121 114 5 348 349 353 18 88 2 355 10 24 23 14 4 354 347 339 328 315 290 282 297 331
179 180 182 183 182 181 182 182 182 181 181 184 184 182 182 186 190 191 187 185 179 174 172 173 174 176 178 168 159 158 164 165 162 157 153 149 148 147 148 150 154 160 167 173 178 179 177 174 172 170 167 163 151 134 127 139 165 185 176 135 101 79 64 50 41 32 24 12 1 352 351 352 337 207 199 76 71 73 73 85 307 294 290 300 308 311 203 248 291 310 321 331 335 333 326 323 321 318 311 298 284 280 291
176 177 182 186 186 184 184 184 184 184 184 186 185 186 189 189 191 194 194 192 186 179 176 174 175 178 180 169 160 161 167 169 167 162 154 148 145 142 140 140 141 144 149 156 162 166 167 166 164 160 154 145 132 121 119 124 128 127 119 108 96 85 75 66 58 53 47 40 24 1 338 324 290 230 225 238 244 60 47 112 225 241 253 270 279 282 262 239 251 276 292 311 319 318 309 308 309 309 306 300 290 282 283
179 180 182 184 186 187 187 188 188 188 188 189 189 191 195 195 195 196 196 193 187 182 180 177 178 181 182 174 169 169 172 174 174 170 162 156 151 147 143 141 140 140 141 144 148 151 153 152 150 144 138 131 123 119 120 121 120 114 106 97 89 82 76 71 66 62 58 55 47 27 355 330 315 296 269 263 261 261 284 271 220 206 219 262 287 296 291 279 269 269 278 297 304 302 297 300 303 302 299 297 293 285 282
180 181 180 182 185 187 189 190 192 193 194 194 194 195 196 198 199 197 192 186 183 183 184 182 182 183 184 181 178 177 176 176 176 174 170 166 163 160 155 151 147 144 143 142 142 142 141 139 136 133 130 127 125 125 127 125 119 111 102 94 87 81 76 71 67 63 60 59 53 44 28 8 351 335 323 315 306 293 278 284 284 271 271 317 310 303 296 290 284 283 287 287 286 287 291 289 287 286 287 291 292 290 284
173 176 179 182 184 187 188 190 192 195 198 199 199 198 197 198 199 196 187 183 183 187 187 185 185 185 184 184 183 181 178 176 175 173 172 173 173 170 167 165 160 154 148 145 143 141 138 136 134 133 132 131 134 136 137 130 121 112 104 97 91 85 79 71 65 60 57 56 54 50 43 34 22 8 351 338 329 320 309 302 301 305 314 317 270 272 282 284 286 289 293 292 293 295 293 290 285 283 284 287 288 287 285
167 173 180 182 185 186 186 187 190 195 201 204 204 202 199 197 195 191 185 185 188 190 188 185 184 183 183 183 182 179 175 173 172 171 169 172 176 179 178 178 176 170 161 154 149 146 144 143 141 139 136 138 143 148 146 137 126 116 110 105 99 93 85 76 65 55 50 49 52 52 50 45 38 30 19 4 347 333 322 312 305 300 301 298 275 266 277 285 290 293 296 297 297 297 296 302 302 297 294 296 296 294 293
168 173 181 183 185 184 184 183 187 194 202 207 208 206 202 196 190 186 184 188 191 191 187 182 179 179 180 181 180 176 171 169 168 167 163 165 178 191 196 191 189 186 180 170 161 156 153 152 150 147 144 147 150 153 151 143 131 122 117 114 110 105 98 90 76 55 38 40 47 52 53 50 46 43 37 27 9 348 327 315 307 299 291 289 288 288 287 290 293 294 295 296 298 300 303 309 308 304 304 312 314 313 313
172 176 182 184 185 185 184 183 186 191 199 207 211 209 205 198 191 185 183 188 193 193 186 180 176 177 178 180 179 176 172 171 170 173 182 195 212 220 215 199 191 190 191 188 181 174 166 161 158 156 156 161 165 163 160 155 142 130 122 119 117 114 109 105 103 81 323 324 6 45 52 52 52 51 50 44 31 9 343 323 308 298 291 284 282 283 282 283 285 287 289 291 294 298 304 309 308 306 310 323 326 326 328
173 175 178 181 186 190 190 192 189 185 187 201 211 211 208 202 195 189 188 192 194 192 188 185 182 180 178 178 177 175 172 174 181 195 210 216 222 225 217 202 198 200 198 197 196 191 182 173 166 164 166 177 189 194 190 195 185 138 116 108 108 109 110 107 108 212 268 274 284 313 32 51 56 58 60 56 47 28 2 337 317 305 296 286 282 280 279 279 280 282 283 287 291 296 301 306 306 306 311 318 323 326 329
154 162 171 180 187 194 199 201 191 177 168 184 207 213 211 207 202 198 201 201 197 192 190 192 188 181 176 175 174 170 166 171 184 197 207 213 217 220 223 231 236 228 210 202 201 199 192 182 176 175 177 187 199 209 213 233 261 288 351 44 59 71 88 74 57 8 287 277 276 280 297 41 59 62 63 59 50 33 10 345 326 313 303 296 289 285 284 286 287 286 286 289 292 295 297 300 301 303 308 310 307 307 315
99 101 126 166 184 192 195 188 184 175 152 152 192 221 217 213 209 207 209 206 198 191 189 187 182 175 171 173 174 171 166 179 191 199 205 212 219 225 231 240 246 238 218 207 204 202 196 187 184 186 186 191 203 217 221 230 248 275 306 332 350 6 24 30 30 24 8 327 301 293 301 358 39 50 51 46 37 24 7 348 328 314 305 299 293 289 287 288 289 289 289 289 291 293 293 295 296 298 302 304 296 291 296
90 85 92 113 130 127 104 91 96 122 137 139 176 234 222 214 210 208 207 199 192 185 180 173 168 166 167 171 175 179 182 195 201 203 207 216 224 231 234 237 238 233 220 211 207 205 200 193 191 191 191 198 213 228 232 233 243 264 294 318 335 350 5 15 22 25 25 19 7 354 345 341 339 340 343 359 8 7 1 348 332 317 305 298 292 289 286 281 279 280 280 282 283 286 289 292 294 295 298 299 289 282 285
98 89 85 86 88 87 80 68 62 82 122 145 189 235 229 213 205 201 195 186 180 176 168 161 160 161 164 171 178 187 196 202 203 204 210 219 227 231 231 227 224 220 218 216 214 210 205 198 193 192 195 208 226 240 245 243 251 269 294 312 330 347 359 7 14 22 26 24 16 3 351 339 324 306 288 292 318 346 357 354 344 329 315 303 294 289 286 280 274 270 269 270 272 276 281 286 288 291 294 295 285 276 278
116 101 87 77 75 79 81 75 69 79 114 155 198 242 276 247 201 187 179 173 170 167 165 160 158 160 164 172 182 193 200 202 202 204 212 219 224 225 222 215 210 209 212 217 219 217 210 202 197 195 201 215 233 248 253 250 255 270 290 307 328 345 355 1 7 14 19 21 14 1 350 338 322 297 270 260 269 315 356 5 1 349 333 316 303 293 287 282 277 271 265 262 264 268 272 275 278 283 290 293 291 285 283
150 139 130 118 103 91 86 85 90 103 126 163 201 232 262 283 295 174 161 162 161 161 167 164 162 164 172 180 188 195 199 202 205 210 215 216 218 217 211 206 202 201 205 212 218 220 216 208 201 201 208 219 231 240 243 246 252 263 279 301 321 338 349 358 2 5 7 6 2 356 347 335 319 288 255 239 237 255 345 11 9 360 346 330 316 301 290 282 276 272 266 261 259 261 264 268 271 276 284 288 289 289 290
202 182 174 174 176 168 133 108 113 131 146 169 196 216 228 235 263 286 236 143 147 155 169 172 174 177 184 191 194 196 197 201 206 213 219 223 223 219 212 206 198 194 196 202 210 215 217 212 209 209 214 217 218 215 211 217 232 248 265 289 306 321 336 352 1 1 356 349 344 340 337 327 311 278 241 225 222 229 284 347 356 353 344 334 323 311 296 283 275 270 265 261 258 257 257 260 264 268 274 277 280 282 285
228 216 199 192 190 186 179 175 184 190 182 186 199 214 226 226 232 251 271 264 169 161 171 178 187 196 202 203 201 199 199 202 208 216 224 235 242 240 232 223 209 196 192 196 200 205 209 211 211 211 212 213 210 204 196 195 204 227 251 279 293 303 312 324 334 341 338 329 322 317 314 309 293 262 231 214 215 228 265 313 332 337 335 330 322 307 288 270 263 262 262 259 256 254 253 255 258 261 264 267 270 272 274
223 226 216 205 198 193 187 184 188 195 198 199 205 215 227 231 231 233 238 243 238 218 200 192 196 206 214 216 214 211 211 214 218 223 231 245 253 253 247 242 231 216 205 203 204 204 205 207 209 211 214 216 214 208 197 187 189 209 246 271 280 284 286 287 286 285 282 282 282 279 273 263 244 219 204 201 211 236 284 314 326 328 324 312 289 267 252 243 241 244 250 253 253 253 252 254 256 257 258 260 262 265 267
212 219 217 207 201 198 194 188 186 187 191 196 202 209 216 221 224 224 224 226 227 225 219 214 211 212 216 219 220 220 222 227 231 233 235 241 248 251 249 245 239 231 223 218 215 214 214 215 216 218 222 223 221 214 203 191 188 208 242 258 265 267 268 268 264 257 244 231 226 222 212 196 179 169 168 177 198 252 299 310 305 293 274 258 250 247 247 246 244 243 245 248 251 253 254 255 256 256 256 255 256 260 263
208 212 210 203 201 202 202 196 192 192 194 198 204 209 213 217 219 220 222 222 221 220 219 217 217 216 216 217 218 219 221 226 232 235 234 234 238 243 244 240 235 230 225 221 219 220 221 223 224 226 228 227 224 217 209 201 208 226 244 252 254 254 254 254 250 243 231 216 207 199 189 174 160 154 156 162 188 226 244 249 250 250 249 248 249 251 252 253 254 252 252 252 254 256 258 258 259 260 259 257 256 257 261
208 210 207 205 207 210 209 203 200 200 203 207 211 215 218 220 220 220 220 221 220 218 217 217 216 216 215 215 215 216 219 223 228 231 231 229 230 233 233 229 225 221 217 214 214 215 217 220 223 226 228 226 221 215 212 214 222 233 244 249 248 244 240 236 232 225 214 206 199 189 177 160 155 157 166 185 209 224 229 232 238 244 249 251 253 254 256 257 258 259 261 262 262 263 265 265 267 268 271 267 264 262 263
209 211 210 211 214 215 213 208 205 205 208 212 216 219 222 223 223 221 219 218 218 216 215 215 215 215 214 213 213 216 220 223 227 228 227 225 224 225 224 220 217 214 211 209 208 209 211 213 216 219 221 220 216 214 217 223 228 234 241 242 240 233 223 215 206 195 187 179 175 168 166 169 184 196 202 212 221 228 233 237 242 246 249 252 254 256 258 259 261 264 268 271 272 273 274 274 274 277 282 279 275 273 271
209 211 213 215 217 218 217 213 210 209 210 213 216 220 222 225 225 224 221 218 217 216 214 214 214 214 211 210 213 218 223 225 227 227 225 223 222 221 221 219 219 218 216 214 213 213 213 213 213 214 214 214 215 218 223 228 231 233 232 232 227 218 204 191 177 165 163 170 177 186 192 199 206 212 216 222 230 236 240 242 245 247 248 251 253 257 259 262 265 270 274 279 282 287 292 286 285 288 291 287 284 282 280
209 211 214 216 218 219 219 217 215 213 213 214 216 219 222 224 226 226 223 219 217 217 216 215 215 215 212 209 212 218 223 226 227 227 224 223 224 225 225 227 228 229 229 227 225 224 223 221 219 217 215 214 216 219 224 228 230 228 224 220 210 197 184 171 155 151 178 194 198 200 205 209 215 220 224 229 234 240 243 245 247 248 251 253 255 257 261 264 268 273 278 281 283 291 310 304 300 303 307 305 300 294 287
211 212 214 216 218 219 220 220 218 216 216 216 216 218 221 223 225 226 224 220 217 216 217 217 217 217 216 214 214 217 221 224 226 226 225 226 228 231 235 237 238 239 239 238 236 233 231 228 224 219 216 214 214 217 221 224 223 220 213 203 189 178 170 151 150 175 197 204 207 209 213 216 221 227 230 233 236 240 243 247 249 252 253 255 257 260 263 266 270 274 277 278 277 277 285 286 289 300 316 327 328 319 304
213 214 216 218 219 219 220 219 218 218 218 218 217 218 220 222 223 224 223 221 217 215 215 215 218 219 218 217 218 219 220 222 224 225 227 229 232 236 240 242 244 244 243 243 240 236 232 226 218 213 210 210 211 212 213 213 210 205 195 180 167 155 142 142 180 205 208 211 215 217 220 224 228 231 235 238 240 244 248 252 255 258 261 261 263 265 267 269 272 272 270 270 273 276 278 279 285 298 320 342 15 41 50
215 216 218 220 221 221 221 219 217 217 218 218 218 219 219 220 221 222 222 220 218 216 215 214 217 220 219 218 219 221 222 223 224 225 226 231 234 235 237 240 243 242 240 239 236 231 225 216 208 203 202 203 203 201 199 196 191 181 168 154 138 126 127 188 212 215 217 219 221 223 226 232 236 239 243 246 249 252 255 259 263 267 271 271 269 268 266 266 265 262 258 259 268 280 284 286 289 299 318 3 87 89 88
219 219 219 221 222 222 222 220 218 217 217 218 219 219 220 220 221 221 221 220 219 218 218 218 218 219 220 219 219 221 223 224 225 225 224 228 231 234 235 237 237 233 228 221 218 217 211 204 200 197 194 194 193 189 185 179 169 157 144 134 133 151 191 210 217 221 225 227 227 229 231 236 241 245 249 252 254 257 259 262 266 269 272 273 272 269 264 257 253 251 248 249 264 282 286 285 283 283 283 179 132 116 106
222 222 222 222 222 223 224 223 221 220 218 217 217 219 220 221 222 222 222 222 221 220 221 221 221 221 221 221 220 221 223 224 225 224 223 224 227 231 233 232 226 220 214 200 197 199 195 188 191 196 193 190 187 183 175 166 154 144 140 154 179 195 204 213 221 226 227 228 230 232 235 239 243 247 250 253 255 257 258 260 262 264 267 273 277 277 270 262 258 256 251 251 267 282 283 279 273 266 257 225 186 164 154
225 225 224 224 225 225 225 225 224 223 222 221 220 220 221 221 223 224 225 224 224 223 222 223 224 224 223 223 221 220 221 224 225 224 223 223 222 222 223 221 217 213 209 195 182 176 180 181 188 194 192 190 185 178 170 161 154 155 166 186 199 207 215 219 223 226 226 228 230 233 235 239 242 246 250 253 254 255 255 256 255 256 260 268 276 282 287 291 285 273 262 264 276 283 279 269 260 254 254 250 246 240 227
226 226 227 227 227 227 227 228 227 227 226 225 225 224 224 224 224 226 227 228 228 226 224 224 225 225 225 225 222 219 217 221 224 223 222 224 222 218 215 212 209 207 205 200 190 173 160 165 166 161 160 174 176 171 165 159 158 164 177 188 197 204 210 215 220 225 228 231 233 235 235 236 238 242 247 251 253 254 254 254 253 252 253 257 263 270 277 279 276 269 265 268 275 277 269 255 247 251 266 266 260 254 251
225 226 228 228 229 229 230 230 229 228 228 227 227 227 227 228 228 229 231 232 232 231 229 227 228 228 227 226 223 219 215 215 220 222 219 220 220 218 216 211 200 184 184 187 185 172 156 149 133 118 121 147 159 159 158 157 160 167 178 188 196 203 208 212 218 224 228 232 235 235 234 233 234 238 243 248 253 256 257 255 253 252 253 256 260 263 265 264 262 260 258 261 264 263 256 248 250 263 273 273 269 263 258
223 225 227 229 230 230 231 230 230 230 229 229 229 230 231 231 232 233 234 235 235 234 233 232 232 231 230 227 223 219 215 210 213 216 213 212 213 214 215 214 208 200 189 182 176 169 159 152 133 113 113 135 146 148 153 157 162 170 179 186 194 201 207 211 216 220 224 228 231 232 231 232 235 238 240 243 247 252 252 249 245 245 249 255 260 261 259 257 254 250 247 247 247 246 243 243 251 264 271 274 274 271 267
221 224 226 228 230 230 230 230 230 230 230 231 231 232 233 234 234 235 236 237 238 237 237 235 234 233 231 228 223 218 214 209 207 207 208 209 210 213 216 216 216 213 202 191 177 169 161 150 143 135 126 125 131 139 145 153 161 168 172 177 186 196 203 208 210 214 219 224 227 228 229 233 235 232 228 230 235 240 240 236 232 234 240 247 252 252 248 241 238 235 231 229 229 229 228 234 245 257 266 273 274 272 269
220 223 225 228 229 229 230 230 230 230 231 231 232 233 235 236 236 237 238 239 239 239 238 235 233 232 229 226 220 214 212 210 207 205 205 207 212 216 218 218 215 210 204 191 176 168 164 156 149 145 140 126 121 128 139 146 152 158 162 169 178 188 196 203 208 212 216 217 220 223 227 229 229 222 214 215 219 224 227 228 230 233 237 239 239 239 236 232 231 229 227 222 218 217 219 226 236 247 258 266 269 269 265
219 222 224 226 228 229 229 230 230 231 231 232 232 233 234 235 237 238 239 239 239 239 237 234 231 228 225 221 216 211 209 209 209 206 204 204 208 214 217 217 215 210 203 190 176 170 169 164 158 155 153 144 135 130 132 140 149 155 158 164 174 184 191 198 205 211 214 216 218 221 223 225 227 228 225 222 221 224 231 237 240 241 241 238 234 230 229 235 243 248 250 247 242 236 233 233 237 244 253 260 264 265 266
219 221 223 225 227 228 228 229 230 230 231 232 232 232 233 234 235 236 237 237 237 236 235 232 229 224 220 217 213 211 210 209 208 207 206 206 207 210 213 213 213 211 205 194 183 176 175 170 164 160 159 156 151 143 135 137 145 153 156 160 168 177 183 187 193 200 207 210 214 217 220 221 224 228 234 238 239 240 239 241 244 246 246 245 244 244 247 252 259 265 269 272 275 276 275 277 279 280 278 276 274 275 278